TimeMDT,TemperatureF,Dew PointF,Humidity,Sea Level PressureIn,VisibilityMPH,Wind Direction,Wind SpeedMPH,Gust SpeedMPH,PrecipitationIn,Events,Conditions,WindDirDegrees,DateUTC
12:17 AM,30.2,24.8,80,30.00,8.0,North,23.0,29.9,N/A,,Overcast,10,2013-04-22 06:17:00
12:40 AM,28.4,24.8,86,30.00,8.0,North,20.7,27.6,N/A,,Overcast,10,2013-04-22 06:40:00
12:53 AM,28.0,24.1,85,30.01,6.0,NNE,18.4,25.3,N/A,,Overcast,20,2013-04-22 06:53:00
1:07 AM,26.6,23.0,86,30.01,5.0,NNE,21.9,27.6,0.00,Snow,Light Snow,20,2013-04-22 07:07:00
1:22 AM,26.6,23.0,86,30.01,2.0,NNE,15.0,26.5,0.00,Snow,Light Snow,20,2013-04-22 07:22:00
1:29 AM,26.6,23.0,86,30.02,1.5,NNE,17.3,21.9,0.00,Snow,Light Snow,20,2013-04-22 07:29:00
1:37 AM,26.6,23.0,86,30.02,1.5,NNE,15.0,23.0,0.00,Snow,Light Snow,30,2013-04-22 07:37:00
1:47 AM,26.6,23.0,86,30.01,2.0,NNE,13.8,21.9,0.00,Snow,Light Snow,30,2013-04-22 07:47:00
1:53 AM,27.0,23.0,85,30.01,2.5,NNE,17.3,23.0,0.00,Snow,Light Snow,30,2013-04-22 07:53:00
2:02 AM,26.6,23.0,86,30.02,6.0,NNE,17.3,-,0.01,Snow,Light Snow,30,2013-04-22 08:02:00
2:13 AM,26.6,21.2,80,30.03,10.0,NNE,15.0,-,0.01,,Overcast,30,2013-04-22 08:13:00
2:41 AM,26.6,23.0,86,30.03,10.0,NNE,10.4,-,0.01,,Overcast,20,2013-04-22 08:41:00
2:53 AM,26.1,21.9,84,30.03,7.0,NNE,11.5,-,0.01,Snow,Light Snow,20,2013-04-22 08:53:00
3:11 AM,26.6,21.2,80,30.04,2.0,NNE,9.2,-,0.01,Snow,Light Snow,20,2013-04-22 09:11:00
3:13 AM,26.6,21.2,80,30.04,1.8,NNE,10.4,-,0.01,Snow,Light Snow,20,2013-04-22 09:13:00
3:26 AM,24.8,21.2,86,30.04,1.2,NNE,12.7,-,0.02,Snow,Light Snow,30,2013-04-22 09:26:00
3:53 AM,25.0,21.9,88,30.06,1.2,North,10.4,-,0.03,Snow,Light Snow,10,2013-04-22 09:53:00
4:50 AM,24.8,19.4,80,30.07,2.0,NNE,16.1,-,0.02,Snow,Light Snow,20,2013-04-22 10:50:00
4:53 AM,24.1,19.9,84,30.08,2.0,NNE,17.3,-,0.02,Snow,Light Snow,30,2013-04-22 10:53:00
5:20 AM,24.8,19.4,80,30.07,2.5,NNE,16.1,-,0.01,Snow,Light Snow,30,2013-04-22 11:20:00
5:53 AM,23.0,19.0,85,30.12,4.0,NNE,15.0,-,0.01,Snow,Light Snow,20,2013-04-22 11:53:00
6:15 AM,23.0,19.4,86,30.10,2.5,North,12.7,-,0.00,Snow,Light Snow,10,2013-04-22 12:15:00
6:25 AM,23.0,19.4,86,30.10,1.2,NNE,13.8,-,0.00,Snow,Light Snow,20,2013-04-22 12:25:00
6:42 AM,23.0,19.4,86,30.11,0.8,NNE,15.0,-,0.00,Snow,Light Snow,20,2013-04-22 12:42:00
6:53 AM,23.0,19.0,85,30.18,0.8,NNE,15.0,-,0.00,Snow,Light Snow,30,2013-04-22 12:53:00
7:10 AM,23.0,19.4,86,30.12,0.2,NNE,13.8,-,0.01,Fog-Snow,Snow,20,2013-04-22 13:10:00
7:18 AM,23.0,19.4,86,30.12,0.5,NNE,12.7,-,0.02,Fog-Snow,Snow,30,2013-04-22 13:18:00
7:38 AM,23.0,19.4,86,30.13,0.8,NNE,12.7,-,0.03,Snow,Light Snow,30,2013-04-22 13:38:00
7:53 AM,23.0,19.0,85,30.21,1.0,NNE,12.7,-,0.03,Snow,Light Snow,30,2013-04-22 13:53:00
8:34 AM,24.8,19.4,80,30.14,0.8,NNE,15.0,-,0.01,Snow,Light Snow,30,2013-04-22 14:34:00
8:40 AM,24.8,19.4,80,30.15,0.8,NNE,13.8,-,0.01,Snow,Light Snow,30,2013-04-22 14:40:00
8:53 AM,24.1,19.0,81,30.24,1.0,NE,16.1,-,0.01,Snow,Light Snow,40,2013-04-22 14:53:00
9:17 AM,24.8,19.4,80,30.16,0.5,NE,11.5,-,0.00,Fog-Snow,Light Snow,40,2013-04-22 15:17:00
9:30 AM,24.8,19.4,80,30.17,0.5,NE,12.7,-,0.01,Fog-Snow,Light Snow,50,2013-04-22 15:30:00
9:39 AM,24.8,19.4,80,30.17,1.0,NE,15.0,-,0.01,Snow,Light Snow,40,2013-04-22 15:39:00
9:44 AM,24.8,19.4,80,30.17,2.0,NE,17.3,-,0.01,Snow,Light Snow,50,2013-04-22 15:44:00
9:53 AM,25.0,19.0,78,30.27,1.8,ENE,18.4,-,0.01,Snow,Light Snow,60,2013-04-22 15:53:00
10:11 AM,24.8,19.4,80,30.18,0.8,NE,19.6,-,0.00,Snow,Light Snow,40,2013-04-22 16:11:00
10:20 AM,24.8,19.4,80,30.19,0.5,NE,18.4,-,0.00,Snow,Snow,40,2013-04-22 16:20:00
10:40 AM,24.8,19.4,80,30.19,0.8,NE,16.1,26.5,0.00,Snow,Light Snow,50,2013-04-22 16:40:00
10:50 AM,24.8,17.6,74,30.20,1.8,NE,21.9,26.5,0.00,Snow,Light Snow,50,2013-04-22 16:50:00
10:53 AM,25.0,17.1,72,30.30,2.5,ENE,18.4,26.5,0.00,Snow,Light Snow,60,2013-04-22 16:53:00
11:00 AM,24.8,17.6,74,30.21,1.2,NE,19.6,25.3,0.00,Snow,Light Snow,40,2013-04-22 17:00:00
11:16 AM,24.8,17.6,74,30.21,0.8,NE,23.0,28.8,0.00,Snow,Light Snow,40,2013-04-22 17:16:00
11:33 AM,24.8,19.4,80,30.21,1.0,NE,21.9,-,0.00,Snow,Light Snow,50,2013-04-22 17:33:00
11:39 AM,24.8,17.6,74,30.20,2.0,NE,21.9,29.9,0.00,Snow,Light Snow,40,2013-04-22 17:39:00
11:50 AM,24.8,17.6,74,30.21,0.8,NNE,20.7,27.6,0.00,Snow,Light Snow,30,2013-04-22 17:50:00
11:51 AM,24.1,18.0,77,30.32,0.8,NNE,21.9,27.6,0.00,Snow,Light Snow,30,2013-04-22 17:51:00
12:11 PM,24.8,19.4,80,30.22,1.0,NNE,23.0,-,0.00,Snow,Light Snow,30,2013-04-22 18:11:00
12:19 PM,24.8,19.4,80,30.22,0.5,NNE,20.7,-,0.00,Snow,Snow,30,2013-04-22 18:19:00
12:36 PM,24.8,19.4,80,30.22,1.0,NNE,23.0,27.6,0.00,Snow,Light Snow,30,2013-04-22 18:36:00
12:47 PM,24.8,19.4,80,30.22,1.5,NNE,24.2,29.9,0.00,Snow,Light Snow,20,2013-04-22 18:47:00
12:53 PM,24.1,18.0,77,30.33,1.5,NNE,24.2,29.9,0.00,Snow,Light Snow,30,2013-04-22 18:53:00
1:53 PM,24.1,18.0,77,30.33,1.5,NNE,25.3,-,0.00,Snow,Light Snow,30,2013-04-22 19:53:00
2:19 PM,24.8,17.6,74,30.23,1.5,NNE,24.2,31.1,0.00,,Overcast,20,2013-04-22 20:19:00
2:22 PM,23.0,17.6,80,30.23,4.0,NNE,25.3,31.1,0.00,,Overcast,20,2013-04-22 20:22:00
2:53 PM,23.0,17.1,78,30.35,7.0,NNE,21.9,28.8,0.00,,Overcast,20,2013-04-22 20:53:00
3:53 PM,24.1,17.1,75,30.36,9.0,NNE,20.7,27.6,N/A,,Overcast,30,2013-04-22 21:53:00
4:14 PM,23.0,15.8,74,30.25,2.5,NNE,17.3,-,0.00,Snow,Light Snow,30,2013-04-22 22:14:00
4:53 PM,24.1,16.0,71,30.37,10.0,NNE,17.3,-,0.00,,Overcast,20,2013-04-22 22:53:00
5:53 PM,23.0,15.1,72,30.40,10.0,NNE,17.3,-,N/A,,Overcast,30,2013-04-22 23:53:00
6:07 PM,23.0,15.8,74,30.27,10.0,NNE,13.8,-,N/A,,Overcast,30,2013-04-23 00:07:00
6:53 PM,21.9,14.0,72,30.41,10.0,NNE,15.0,-,N/A,,Overcast,30,2013-04-23 00:53:00
7:53 PM,21.0,14.0,74,30.43,10.0,NNE,10.4,-,N/A,,Overcast,20,2013-04-23 01:53:00
8:53 PM,19.9,14.0,78,30.45,5.0,NNE,11.5,-,0.00,Snow,Light Snow,30,2013-04-23 02:53:00
9:00 PM,19.4,14.0,80,30.30,9.0,NNE,9.2,-,0.00,,Mostly Cloudy,30,2013-04-23 03:00:00
9:07 PM,19.4,14.0,80,30.31,10.0,NNE,9.2,-,0.00,,Scattered Clouds,30,2013-04-23 03:07:00
9:26 PM,19.4,14.0,80,30.31,10.0,NNE,9.2,-,0.00,,Mostly Cloudy,30,2013-04-23 03:26:00
9:53 PM,19.0,14.0,81,30.46,10.0,NNE,9.2,-,0.00,,Overcast,30,2013-04-23 03:53:00
10:53 PM,18.0,12.9,81,30.45,10.0,NNE,6.9,-,N/A,,Overcast,30,2013-04-23 04:53:00
11:15 PM,15.8,12.2,86,30.30,10.0,NNE,5.8,-,N/A,,Scattered Clouds,30,2013-04-23 05:15:00
11:49 PM,15.8,10.4,79,30.29,10.0,NE,5.8,-,N/A,,Mostly Cloudy,40,2013-04-23 05:49:00
11:53 PM,16.0,10.9,81,30.45,10.0,NE,6.9,-,N/A,,Mostly Cloudy,40,2013-04-23 05:53:00